Location: Clanezzo
(45.7500°N, 9.6000°E)
Time: 21:56:08
(UTC+00:00)

ESTCUBE 1 - Pass Details

Date: 09 July 2022
Orbit: 646 x 657 km, 97.9° (Epoch: 07 August)

Event Time Altitude Azimuth Distance (km) Brightness Sun altitude
Exits shadow 20:20:02 11° 113° (ESE) 2,004 ? -9.8°
Maximum altitude 20:23:18 22° 64° (ENE) 1,421 ? -10.2°
Drops below altitude 10° 20:26:44 10° 14° (NNE) 2,065 ? -10.6°
Sets 20:29:21 0° 360° (N) 2,983 ? -10.9°
